Regional Weather Roundup
Issued by NWS Burlington, VT

Home | Current Version | Previous Version | Text Only | Print | Product List | Glossary On
Versions: 1 2 3 4 5 6 7 8 9 10 11 12 13 14 15 16 17 18 19 20 21 22 23 24 25 26 27 28 29 30 31 32 33 34 35 36 37 38 39 40 41 42 43 44 45 46 47 48 49 50
000
ASUS41 KBTV 292130
RWRBTV
VERMONT REGIONAL WEATHER ROUNDUP
NATIONAL WEATHER SERVICE BURLINGTON VT
500 PM EDT SUN MAY 29 2016

NOTE: "FAIR" INDICATES FEW OR NO CLOUDS BELOW 12,000 FEET WITH NO
SIGNIFICANT WEATHER AND/OR OBSTRUCTIONS TO VISIBILITY.

* THESE REPORTS ARE NOT UNDER NWS QUALITY CONTROL AND/OR DO NOT
  REPORT WEATHER SUCH AS PRECIPITATION AND FOG.

VTZ001>019-292200-
_____VERMONT_____


CITY           SKY/WX    TMP DP  RH WIND       PRES   REMARKS
BURLINGTON     TSTM      73  68  84 S3        30.05R
MONTPELIER     LGT RAIN  69  62  78 S8        30.14S
MORRISVILLE    LGT RAIN  70  65  84 SW9       30.08S
ST. JOHNSBURY*   N/A     75  60  59 MISG      30.07S
LYNDONVILLE*   FAIR      72  61  69 SE9       30.11S
RUTLAND*       FAIR      72  64  78 E13G23    30.08F
SPRINGFIELD    CLOUDY    70  61  73 SE8       30.11F
HIGHGATE*      DRIZZLE   68  65  92 S3        30.00F
NEWPORT*       DRIZZLE   73  65  74 S6        30.07R
BENNINGTON     FAIR      75  66  73 VRB3      30.06F
SUTTON*          N/A     72 N/A N/A MISG        N/A
GALLUP MILLS*    N/A     73 N/A N/A MISG        N/A
UNION VILLAGE*   N/A     70 N/A N/A MISG        N/A
MT. MANSFIELD*   N/A     64 N/A N/A NW14        N/A

_____LAKE CHAMPLAIN_____


CITY           SKY/WX    TMP DP  RH WIND       PRES   REMARKS
BURTON ISLAND*   N/A     68  68 100 N1          N/A
COLCHESTER RF*   N/A     72  68  88 NW8         N/A
DIAMOND ISL*     N/A     73  70  88 NE2         N/A

$$

NYZ007-026>031-035-052-083-087-292200-
_____NORTHERN NEW YORK_____


CITY           SKY/WX    TMP DP  RH WIND       PRES   REMARKS
PLATTSBURGH    LGT RAIN  70  69  97 S7        30.02S FOG
SARANAC LAKE   TSTM      67  65  93 VRB5      30.09R VSB 1/4
MASSENA        CLOUDY    86  65  49 E10       29.96F
OGDENSBURG*    SUNNY     90  66  45 SW9       29.94F HX  92
STARK FALLS*     N/A     32 N/A N/A SE7         N/A  WCI  26
WATERTOWN      CLOUDY    81  67  62 SW3       29.97F
ALBANY         CLOUDY    80  65  59 CALM      30.02F
GLENS FALLS    TSTM      72  64  76 SE8       30.04S

$$
NHZ002-005-011-292200-
_____NEW HAMPSHIRE_____


CITY           SKY/WX    TMP DP  RH WIND       PRES   REMARKS
LEBANON        CLOUDY    70  60  70 SE9       30.11R
MT WASHINGTON  PTSUNNY   57  55  94 SW18G25     N/A
PLYMOUTH       CLOUDY    64  56  75 CALM      30.17S
WHITEFIELD     CLOUDY    74  59  59 NE9       30.09F

$$

_____REGIONAL QUEBEC LOCATIONS_____


CITY           SKY/WX    TMP DP  RH WIND       PRES   REMARKS
MONTREAL       CLOUDY    81  66  61 SE12G17   29.96F
QUEBEC CITY    CLOUDY    61  55  82 E10       30.05F
SHERBROOKE     PTSUNNY   73  64  73 SE13      30.03F

_____REGIONAL ONTARIO LOCATIONS_____


CITY           SKY/WX    TMP DP  RH WIND       PRES   REMARKS
OTTAWA         PTSUNNY   90  66  45 S10G18    29.91F HX  92

______KEY______
VSB  - VISIBILITY IN MILES
WCI  - WIND CHILL INDEX
HX   - HEAT INDEX
$$
NNNN




USA.gov is the U.S. government's official web portal to all federal, state and local government web resources and services.